{"data":{"norad_id":52705,"intl_designator":"2022-053BB","name":"STARLINK-3844","alt_names":[],"object_type":"PAYLOAD","status":"ACTIVE","operator":null,"country":"US","launch_date":"2022-05-18","launch_site_code":"AFETR","launch_vehicle":null,"mission":null,"orbit_class":"UNKNOWN","rcs_meters":null,"size_class":null,"mass_kg":null,"dimensions":null,"purposes":["comms"],"wikipedia_slug":null,"has_3d_model":false,"image_url":null,"decayed_at":null,"tle_current":{"epoch":"2026-05-24T23:41:09.021408Z","epoch_age_seconds":72862,"freshness":"FRESH","line1":"1 52705U 22053BB  26144.98690997  .00000342  00000+0  39601-4 0  9996","line2":"2 52705  53.2134 151.6086 0001210  79.5712 280.5416 15.08835466222830","mean_motion":15.08835466,"eccentricity":0.000121,"inclination_deg":53.2134,"raan_deg":151.6086,"arg_perigee_deg":79.5712,"mean_anomaly_deg":280.5416,"bstar":3.9601e-5,"rev_number":22283,"period_min":95.437841464418,"perigee_km":538.92018241899,"apogee_km":540.59431282692,"semimajor_km":6917.894247623,"source":"CELESTRAK","updated_at":"2026-05-25T13:38:17.239232Z"}}}